Jackson, NJ

9:13 AM EST on February 25, 2017 (GMT -0500)
Lakehurst Naes

Weather History for KNEL - June, 2013

Change the Weather History Date:

Tuesday, June 18, 2013

  Actual Average Record
Temperature  
Mean Temperature 76 °F -  
Max Temperature 66 °F 79 °F 86 °F (1998)
Min Temperature 64 °F 63 °F 45 °F (2016)
Cooling Degree Days 12    
Growing Degree Days 26 (Base 50)    
Moisture  
Dew Point 64 °F    
Average Humidity 73    
Maximum Humidity 90    
Minimum Humidity 51    
Precipitation  
Precipitation 0.00 in - - ()
Sea Level Pressure  
Sea Level Pressure 29.86 in    
Wind  
Wind Speed 3 mph (East)    
Max Wind Speed 17 mph    
Max Gust Speed 24 mph    
Averages and records for this station are not official NWS values.
T = Trace of Precipitation, MM = Missing Value Source: NWS Daily Summary

Daily Weather History Graph

Daily Weather History Graph

Search for Another Location

Airport or City:

Trip Planner

Search our weather history database for the weather conditions in past years. The results will help you decide how hot, cold, wet, or windy it might be!

Date:

Astronomy

Jun. 18, 2013 Rise Set
Actual Time 5:28 AM EDT 8:29 PM EDT
Civil Twilight 4:55 AM EDT 9:02 PM EDT
Nautical Twilight 4:13 AM EDT 9:43 PM EDT
Astronomical Twilight 3:24 AM EDT 10:32 PM EDT
Moon 3:10 PM EDT (6/18) 1:35 AM EDT (6/18)
Length of Visible Light 16h 06m
Length of Day
15h 01m
Waxing Gibbous, 70% of the Moon is Illuminated
Jun 18
Waxing Gibbous
Jun 23
Full
Jun 30
Last Quarter
Jul 8
New
Jul 15
First Quarter

Hourly Weather History & Observations

Time (EDT) Temp. Heat Index Dew Point Humidity Pressure Visibility Wind Dir Wind Speed Gust Speed Precip Events Conditions
12:00 AM 66.9 °F - 63.0 °F 87% 29.91 in - Calm Calm - N/A   Clear
1:00 AM 66.9 °F - 63.0 °F 87% 29.90 in - Calm Calm - N/A   Clear
2:00 AM 68.0 °F - 62.1 °F 81% 29.89 in - Calm Calm - N/A   Clear
3:00 AM 66.9 °F - 61.0 °F 81% 29.88 in - Calm Calm - N/A   Clear
4:00 AM 66.0 °F - 61.0 °F 84% 29.87 in - Calm Calm - N/A   Clear
5:00 AM 64.9 °F - 61.0 °F 87% 29.88 in - Calm Calm - N/A   Clear
6:00 AM 64.9 °F - 61.0 °F 87% 29.88 in - Calm Calm - N/A   Clear
7:00 AM 72.0 °F - 64.0 °F 76% 29.88 in - ENE 3.5 mph - N/A   Clear
8:00 AM 80.1 °F 81.9 °F 64.9 °F 60% 29.89 in - South 4.6 mph - N/A   Clear
9:00 AM 82.9 °F 85.0 °F 66.0 °F 56% 29.90 in - Calm Calm - N/A   Clear
10:00 AM 82.9 °F 85.4 °F 66.9 °F 58% 29.88 in - Calm Calm - N/A   Scattered Clouds
11:00 AM 84.9 °F 87.6 °F 66.9 °F 55% 29.88 in - ESE 4.6 mph - N/A   Partly Cloudy
12:00 PM 89.1 °F 93.7 °F 69.1 °F 52% 29.86 in - Calm Calm - N/A   Mostly Cloudy
12:58 PM 84.2 °F 88.4 °F 69.8 °F 62% 29.85 in - Variable 3.5 mph - N/A   Overcast
1:00 PM 87.1 °F 91.3 °F 69.1 °F 55% 29.86 in - Variable 6.9 mph - N/A   Overcast
1:08 PM 78.8 °F - 59.0 °F 51% 29.87 in - NNW 17.3 mph 24.2 mph N/A Thunderstorm Thunderstorm
1:20 PM 71.6 °F - 60.8 °F 69% 29.85 in - NNE 8.1 mph 20.7 mph N/A Rain , Thunderstorm Light Thunderstorms and Rain
1:38 PM 71.6 °F - 62.6 °F 73% 29.84 in - NNE 5.8 mph - N/A Rain Light Rain
1:52 PM 69.8 °F - 62.6 °F 78% 29.83 in - NE 8.1 mph - N/A Rain , Thunderstorm Light Thunderstorms and Rain
2:00 PM 71.1 °F - 62.1 °F 73% 29.82 in - NE 6.9 mph - N/A Rain , Thunderstorm Thunderstorms and Rain
3:00 PM 75.0 °F - 64.0 °F 69% 29.87 in - SW 5.8 mph - N/A Rain , Thunderstorm Heavy Thunderstorms and Rain
4:00 PM 69.1 °F - 64.9 °F 87% 29.85 in - NE 3.5 mph - N/A Rain , Thunderstorm Thunderstorms and Rain
4:44 PM 75.2 °F - 66.2 °F 73% 29.85 in - SE 5.8 mph - N/A Rain Rain
5:00 PM 75.9 °F - 66.0 °F 71% 29.86 in - SE 3.5 mph - N/A Rain Rain
6:00 PM 77.0 °F - 66.2 °F 69% 29.82 in - SE 4.6 mph - N/A Rain Light Rain
6:06 PM 77.0 °F - 64.9 °F 66% 29.81 in - ESE 5.8 mph - N/A Rain Light Rain
7:00 PM 69.1 °F - 66.0 °F 90% 29.83 in - Calm Calm - N/A Rain Light Rain
7:27 PM 69.8 °F - 64.4 °F 83% 29.86 in - Variable 5.8 mph - N/A Rain Light Rain
8:00 PM 71.1 °F - 64.9 °F 81% 29.85 in - NE 5.8 mph - N/A Rain Light Rain
9:00 PM 73.9 °F - 62.1 °F 66% 29.79 in - East 9.2 mph - N/A   Partly Cloudy
10:00 PM 68.0 °F - 62.1 °F 81% 29.84 in - Variable 4.6 mph - N/A   Partly Cloudy
11:00 PM 66.0 °F - 62.1 °F 87% 29.85 in - Variable 3.5 mph - N/A   Mostly Cloudy